CAPE MAY HARBOR AT CAPE MAY NJ US USGS current weather conditions

sailwx.info

Wind from 167 at 6 knots gusting 14

Air temperature 13.7° C
Dewpoint 11.2° C

Last reported at 2019-Dec-10 10:36 UTC.
Time now 2019-Dec-10 11:29 UTC

Location: N 38°57' W 074°53'.
View on Google Maps.

See reports from other nearby stations

  
Tides and Currents Weather Stations Pressure Air Temp Water Temp Dewpoint Dewpoint Depression Visibility Wind Speed Wind Dir Waves Ship Positions
date/time (UTC)wind fromknots sea level pressurealtimeterstation pressurevisibilityair tempwater tempwave heightnotes
2019-Dec-10 10:36 167 6 gusting 14 13.7
2019-Dec-10 10:30 167 7 gusting 12 13.7
2019-Dec-10 10:24 161 7 gusting 14 13.7
2019-Dec-10 10:18 162 7 gusting 13 13.7
2019-Dec-10 10:12 165 6 gusting 12 13.7
2019-Dec-10 10:06 179 7 gusting 14 13.7
2019-Dec-10 10:00 170 6 gusting 13 13.8
2019-Dec-10 09:54 179 8 gusting 15 13.7
2019-Dec-10 09:48 175 6 gusting 15 13.7
2019-Dec-10 09:42 171 6 gusting 13 13.8
2019-Dec-10 09:36 170 6 gusting 13 13.8
2019-Dec-10 09:30 173 7 gusting 15 13.7
2019-Dec-10 09:24 175 7 gusting 15 13.7
2019-Dec-10 09:18 177 7 gusting 13 13.6
2019-Dec-10 09:12 170 7 gusting 16 13.5
2019-Dec-10 09:06 163 7 gusting 14 13.5
2019-Dec-10 09:00 163 7 gusting 14 13.4
2019-Dec-10 08:54 164 7 gusting 14 13.6
2019-Dec-10 08:48 162 8 gusting 18 13.6
2019-Dec-10 08:42 162 7 gusting 15 13.6
2019-Dec-10 08:36 161 7 gusting 15 13.7
2019-Dec-10 08:30 160 8 gusting 17 13.9
2019-Dec-10 08:24 164 7 gusting 13 13.8
2019-Dec-10 08:18 163 8 gusting 17 13.8
2019-Dec-10 08:12 160 9 gusting 18 13.8
2019-Dec-10 08:06 166 8 gusting 17 13.7
2019-Dec-10 08:00 169 6 gusting 15 13.7
2019-Dec-10 07:54 176 8 gusting 16 13.8
2019-Dec-10 07:48 179 7 gusting 17 13.8
2019-Dec-10 07:42 180 8 gusting 14 13.6
2019-Dec-10 07:36 170 7 gusting 13 13.6
2019-Dec-10 07:30 161 8 gusting 15 13.7
2019-Dec-10 07:24 162 8 gusting 19 13.7
2019-Dec-10 07:18 162 7 gusting 14 13.7
2019-Dec-10 07:12 163 8 gusting 16 13.8
2019-Dec-10 07:06 170 6 gusting 13 13.9
2019-Dec-10 07:00 169 7 gusting 13 13.9
2019-Dec-10 06:54 169 7 gusting 13 13.9
2019-Dec-10 06:48 179 7 gusting 15 14.0
2019-Dec-10 06:42 179 7 gusting 17 13.9
2019-Dec-10 06:36 175 7 gusting 13 14.0
2019-Dec-10 06:30 169 7 gusting 17 13.9
2019-Dec-10 06:24 169 8 gusting 17 14.1
2019-Dec-10 06:18 169 8 gusting 16 14.0
2019-Dec-10 06:12 177 8 gusting 15 13.9
2019-Dec-10 06:06 181 8 gusting 14 13.9
2019-Dec-10 06:00 178 8 gusting 16 13.9
2019-Dec-10 05:54 171 7 gusting 15 14.0
2019-Dec-10 05:48 173 7 gusting 14 13.9
2019-Dec-10 05:42 179 7 gusting 18 13.9
2019-Dec-10 05:36 170 8 gusting 15 14.0
2019-Dec-10 05:30 181 8 gusting 14 14.2
2019-Dec-10 05:24 181 10 gusting 19 14.2
2019-Dec-10 05:18 183 10 gusting 18 14.3
2019-Dec-10 05:12 184 9 gusting 17 14.4
2019-Dec-10 05:06 184 10 gusting 19 14.7
2019-Dec-10 05:00 184 11 gusting 18 14.8
2019-Dec-10 04:54 185 11 gusting 22 14.8
2019-Dec-10 04:48 185 11 gusting 22 14.6
2019-Dec-10 04:42 185 12 gusting 23 14.7
2019-Dec-10 04:36 185 12 gusting 23 14.6
2019-Dec-10 04:30 185 11 gusting 22 14.4
2019-Dec-10 04:24 186 10 gusting 20 14.5
2019-Dec-10 04:18 185 11 gusting 18 14.2
2019-Dec-10 04:12 185 10 gusting 18 14.1
2019-Dec-10 04:06 185 10 gusting 17 14.0
2019-Dec-10 04:00 184 10 gusting 15 13.9
2019-Dec-10 03:54 185 11 gusting 18 13.9
2019-Dec-10 03:48 186 10 gusting 18 13.3
2019-Dec-10 03:42 184 8 gusting 15 12.5
2019-Dec-10 03:36 177 6 gusting 12 12.4
2019-Dec-10 03:30 183 6 gusting 11 12.4
2019-Dec-10 03:24 181 7 gusting 13 12.4
2019-Dec-10 03:18 184 8 gusting 13 12.4
2019-Dec-10 03:12 182 7 gusting 13 11.9
2019-Dec-10 03:06 184 7 gusting 12 11.7
2019-Dec-10 03:00 182 6 gusting 11 11.5
2019-Dec-10 02:54 184 7 gusting 13 11.4
2019-Dec-10 02:48 174 6 gusting 13 11.3
2019-Dec-10 02:42 176 6 gusting 12 11.2
2019-Dec-10 02:36 174 6 gusting 12 11.1
2019-Dec-10 02:30 169 6 gusting 11 11.1
2019-Dec-10 02:24 163 6 gusting 13 11.1
2019-Dec-10 02:18 161 7 gusting 13 11.2
2019-Dec-10 02:12 165 7 gusting 14 11.1
2019-Dec-10 02:06 166 6 gusting 12 11.2
2019-Dec-10 02:00 163 7 gusting 13 11.1
2019-Dec-10 01:54 158 8 gusting 17 11.1
2019-Dec-10 01:48 160 9 gusting 16 11.1
2019-Dec-10 01:36 158 10 gusting 17 11.1
2019-Dec-10 01:30 156 9 gusting 16 11.1
2019-Dec-10 01:24 156 11 gusting 18 11.0
2019-Dec-10 01:18 155 10 gusting 17 11.1
2019-Dec-10 01:12 155 10 gusting 17 11.1
2019-Dec-10 01:06 156 10 gusting 16 11.1
2019-Dec-10 01:00 154 10 gusting 16 11.1
2019-Dec-10 00:54 157 11 gusting 19 11.1
2019-Dec-10 00:48 157 10 gusting 18 11.1
2019-Dec-10 00:42 156 10 gusting 17 11.1
2019-Dec-10 00:36 154 11 gusting 18 11.1
2019-Dec-10 00:30 153 11 gusting 18 11.2
2019-Dec-10 00:24 154 11 gusting 17 11.2
2019-Dec-10 00:18 154 11 gusting 19 11.2
2019-Dec-10 00:12 150 11 gusting 18 11.2
2019-Dec-10 00:06 152 11 gusting 17 11.2
2019-Dec-10 00:00 151 11 gusting 20 11.2
2019-Dec-09 23:54 149 12 gusting 20 11.2
2019-Dec-09 23:48 146 12 gusting 22 11.3
2019-Dec-09 23:42 146 13 gusting 21 11.3
2019-Dec-09 23:36 147 12 gusting 20 11.4
2019-Dec-09 23:30 148 13 gusting 21 11.4
2019-Dec-09 23:24 148 13 gusting 21 11.5
2019-Dec-09 23:18 150 12 gusting 21 11.6
2019-Dec-09 23:12 146 12 gusting 22 11.6
2019-Dec-09 23:06 144 12 gusting 21 11.6
2019-Dec-09 23:00 147 11 gusting 18 11.6
2019-Dec-09 22:54 149 12 gusting 19 11.7
2019-Dec-09 22:48 146 11 gusting 18 11.6
2019-Dec-09 22:42 147 11 gusting 19 11.6
2019-Dec-09 22:36 154 10 gusting 16 11.6
2019-Dec-09 22:30 152 10 gusting 19 11.6
2019-Dec-09 22:24 150 10 gusting 17 11.6
2019-Dec-09 22:18 148 10 gusting 18 11.6
2019-Dec-09 22:12 146 11 gusting 19 11.4
2019-Dec-09 22:06 145 10 gusting 19 11.3
2019-Dec-09 22:00 144 10 gusting 19 11.3
2019-Dec-09 21:54 148 10 gusting 17 11.4
2019-Dec-09 21:48 146 11 gusting 18 11.5
2019-Dec-09 21:42 144 11 gusting 17 11.3
2019-Dec-09 21:36 145 10 gusting 18 11.2
2019-Dec-09 21:30 143 8 gusting 15 11.0
2019-Dec-09 21:24 149 6 gusting 13 10.7
2019-Dec-09 21:18 146 6 gusting 12 10.4
2019-Dec-09 21:12 139 5 gusting 10 10.3
2019-Dec-09 21:06 136 5 gusting 9 10.4
2019-Dec-09 21:00 141 6 gusting 11 10.2
2019-Dec-09 20:54 125 6 gusting 11 10.2
2019-Dec-09 20:48 124 5 gusting 8 10.1
2019-Dec-09 20:42 117 4 gusting 8 10.1
2019-Dec-09 20:36 117 3 gusting 6 10.2
2019-Dec-09 20:30 127 3 gusting 6 10.3
2019-Dec-09 20:24 121 3 gusting 5 10.3
2019-Dec-09 20:18 113 3 gusting 5 10.3
2019-Dec-09 20:12 125 3 gusting 5 10.2
2019-Dec-09 20:06 116 3 gusting 5 10.3
2019-Dec-09 20:00 127 2 gusting 4 10.4
2019-Dec-09 19:54 131 2 gusting 4 10.5
2019-Dec-09 19:48 104 2 gusting 3 10.5
2019-Dec-09 19:42 126 2 gusting 3 10.3
2019-Dec-09 19:36 100 2 gusting 4 10.3
2019-Dec-09 19:30 107 3 gusting 5 10.4
2019-Dec-09 19:24 095 2 gusting 4 10.8
2019-Dec-09 19:18 237 1 gusting 2 10.9
2019-Dec-09 19:12 267 1 gusting 2 10.9
2019-Dec-09 19:06 286 1 gusting 1 10.9
2019-Dec-09 19:00 305 0 gusting 1 10.9
2019-Dec-09 18:54 262 2 gusting 4 10.9
2019-Dec-09 18:48 242 3 gusting 6 10.9
2019-Dec-09 18:42 249 4 gusting 6 10.9
2019-Dec-09 18:36 238 4 gusting 7 11.3
2019-Dec-09 18:30 242 5 gusting 7 11.4
2019-Dec-09 18:24 246 4 gusting 6 11.6
2019-Dec-09 18:18 221 4 gusting 6 11.8
2019-Dec-09 18:12 213 3 gusting 6 11.7
2019-Dec-09 18:06 208 2 gusting 4 11.5
2019-Dec-09 18:00 215 2 gusting 4 11.2
2019-Dec-09 17:54 226 2 gusting 4 11.2
2019-Dec-09 17:48 230 3 gusting 4 11.3
2019-Dec-09 17:42 219 3 gusting 4 11.4
2019-Dec-09 17:36 210 3 gusting 6 11.4
2019-Dec-09 17:30 206 4 gusting 7 11.5
2019-Dec-09 17:24 189 4 gusting 6 11.3
2019-Dec-09 17:18 182 4 gusting 6 11.1
2019-Dec-09 17:12 175 4 gusting 8 11.1
2019-Dec-09 17:06 174 4 gusting 8 11.2
2019-Dec-09 17:00 189 5 gusting 8 11.2
2019-Dec-09 16:54 182 5 gusting 8 11.0
2019-Dec-09 16:48 159 4 gusting 7 10.9
2019-Dec-09 16:42 154 4 gusting 7 10.8
2019-Dec-09 16:36 150 5 gusting 11 12.2
2019-Dec-09 16:30 184 6 gusting 11 12.2
2019-Dec-09 16:24 187 6 gusting 12 12.2
2019-Dec-09 16:18 186 7 gusting 11 12.2
2019-Dec-09 16:12 187 6 gusting 12 12.1
2019-Dec-09 16:06 185 7 gusting 15 12.1
2019-Dec-09 16:00 181 5 gusting 11 12.1
2019-Dec-09 15:54 170 5 gusting 10 11.9
2019-Dec-09 15:48 166 5 gusting 12 12.0
2019-Dec-09 15:42 167 6 gusting 12 12.3
2019-Dec-09 15:36 170 6 gusting 13 12.5
2019-Dec-09 15:30 186 6 gusting 11 12.4
2019-Dec-09 15:24 193 6 gusting 11 12.2
2019-Dec-09 15:18 184 5 gusting 9 12.0
2019-Dec-09 15:12 180 4 gusting 8 11.9
2019-Dec-09 15:06 180 5 gusting 9 11.9
2019-Dec-09 15:00 175 5 gusting 11 12.0
2019-Dec-09 14:54 184 7 gusting 13 12.0
2019-Dec-09 14:48 194 8 gusting 14 12.0
2019-Dec-09 14:42 195 9 gusting 18 11.8
2019-Dec-09 14:36 196 8 gusting 14 11.5
2019-Dec-09 14:30 204 8 gusting 13 11.1
2019-Dec-09 14:24 206 7 gusting 12 11.1
2019-Dec-09 14:18 194 6 gusting 10 11.1
2019-Dec-09 14:12 187 7 gusting 12 11.3
2019-Dec-09 14:06 185 7 gusting 12 11.5
2019-Dec-09 14:00 180 7 gusting 13 11.7
2019-Dec-09 13:54 172 8 gusting 19 11.6
2019-Dec-09 13:48 172 8 gusting 16 11.6
2019-Dec-09 13:42 167 8 gusting 16 11.7
2019-Dec-09 13:36 165 9 gusting 18 11.7
2019-Dec-09 13:30 161 11 gusting 21 11.8
2019-Dec-09 13:24 160 11 gusting 22 11.8
2019-Dec-09 13:18 163 10 gusting 20 11.9
2019-Dec-09 13:12 160 11 gusting 20 12.0
2019-Dec-09 13:06 157 11 gusting 19 11.8
2019-Dec-09 13:00 152 10 gusting 18 11.7
2019-Dec-09 12:54 143 9 gusting 16 11.5
2019-Dec-09 12:48 134 7 gusting 12 11.3
2019-Dec-09 12:42 120 8 gusting 14 11.0
2019-Dec-09 12:36 095 7 gusting 13 10.5
2019-Dec-09 12:30 099 4 gusting 10 10.5
2019-Dec-09 12:24 124 3 gusting 5 10.9
2019-Dec-09 12:18 157 5 gusting 8 11.3
2019-Dec-09 12:12 162 5 gusting 8 11.7
2019-Dec-09 12:06 182 4 gusting 8 11.6
2019-Dec-09 12:00 193 5 gusting 8 11.4
2019-Dec-09 11:54 196 4 gusting 7 11.2
2019-Dec-09 11:48 177 3 gusting 6 11.0
2019-Dec-09 11:42 181 3 gusting 7 11.0
2019-Dec-09 11:36 182 5 gusting 8 11.2
2019-Dec-09 11:30 181 5 gusting 9 11.5
2019-Dec-09 11:24 171 6 gusting 11 11.6
2019-Dec-09 11:18 179 8 gusting 15 11.5
2019-Dec-09 11:12 173 7 gusting 14 11.5
2019-Dec-09 11:06 165 7 gusting 14 11.7
2019-Dec-09 11:00 142 6 gusting 11 11.5
2019-Dec-09 10:54 133 5 gusting 11 11.4
2019-Dec-09 10:48 122 6 gusting 11 11.3
2019-Dec-09 10:42 114 5 gusting 10 11.3
2019-Dec-09 10:36 096 4 gusting 9 11.4
2019-Dec-09 10:30 092 5 gusting 11 11.4
2019-Dec-09 10:24 075 3 gusting 6 10.8
2019-Dec-09 10:18 054 3 gusting 5 10.6
2019-Dec-09 10:12 047 2 gusting 4 10.5
2019-Dec-09 10:00 015 3 gusting 4 10.5
2019-Dec-09 09:54 009 2 gusting 4 10.3
2019-Dec-09 09:48 027 3 gusting 4 10.5
2019-Dec-09 09:42 022 3 gusting 5 11.0
2019-Dec-09 09:36 021 2 gusting 3 10.5
2019-Dec-09 09:30 034 3 gusting 4 10.6
2019-Dec-09 09:24 024 2 gusting 3 10.1
2019-Dec-09 09:18 034 2 gusting 4 10.3
2019-Dec-09 09:12 040 3 gusting 6 9.9
2019-Dec-09 09:06 041 4 gusting 5 9.3
2019-Dec-09 09:00 037 4 gusting 5 8.8
2019-Dec-09 08:54 005 3 gusting 4 8.5
2019-Dec-09 08:48 348 2 gusting 3 8.7
2019-Dec-09 08:42 026 3 gusting 4 8.9
2019-Dec-09 08:36 032 3 gusting 4 8.8
2019-Dec-09 08:30 030 3 gusting 4 8.5
2019-Dec-09 08:24 031 3 gusting 4 8.3
2019-Dec-09 08:18 025 3 gusting 4 8.2
2019-Dec-09 08:12 021 2 gusting 3 8.1
2019-Dec-09 08:06 013 2 gusting 2 8.1
2019-Dec-09 08:00 017 2 gusting 3 8.0
2019-Dec-09 07:54 025 2 gusting 3 7.9
2019-Dec-09 07:48 026 2 gusting 3 7.9
2019-Dec-09 07:42 015 2 gusting 2 7.9
2019-Dec-09 07:36 010 2 gusting 2 7.9
2019-Dec-09 07:30 004 2 gusting 3 7.8
2019-Dec-09 07:24 002 2 gusting 4 7.7
2019-Dec-09 07:18 347 3 gusting 4 7.7
2019-Dec-09 07:12 340 3 gusting 4 7.6
2019-Dec-09 07:06 350 1 gusting 2 7.6
2019-Dec-09 07:00 356 1 gusting 2 7.6
2019-Dec-09 06:54 006 1 gusting 2 7.6
2019-Dec-09 06:48 010 1 gusting 1 7.6
2019-Dec-09 06:42 019 1 gusting 2 7.5
2019-Dec-09 06:36 023 1 gusting 2 7.5
2019-Dec-09 06:30 022 2 gusting 2 7.5
2019-Dec-09 06:24 025 2 gusting 2 7.4
2019-Dec-09 06:18 033 2 gusting 3 7.5
2019-Dec-09 06:12 038 2 gusting 3 7.7
2019-Dec-09 06:06 041 2 gusting 3 7.7
2019-Dec-09 06:00 022 2 gusting 2 7.7
2019-Dec-09 05:54 013 2 gusting 2 7.7
2019-Dec-09 05:48 011 1 gusting 1 7.7
2019-Dec-09 05:42 005 1 gusting 2 7.7
2019-Dec-09 05:36 003 1 gusting 1 7.7
2019-Dec-09 05:30 312 0 gusting 1 7.7
2019-Dec-09 05:24 296 0 gusting 1 7.7
2019-Dec-09 05:18 329 0 gusting 1 7.7
2019-Dec-09 05:12 282 1 gusting 1 7.7
2019-Dec-09 05:06 272 1 gusting 1 7.8
2019-Dec-09 05:00 304 1 gusting 2 7.8
2019-Dec-09 04:54 324 1 gusting 1 7.8
2019-Dec-09 04:48 301 0 gusting 1 7.9
2019-Dec-09 04:42 337 0 gusting 1 8.0
2019-Dec-09 04:36 025 1 gusting 2 8.1
2019-Dec-09 04:30 034 1 gusting 2 8.0
2019-Dec-09 04:24 028 2 gusting 2 8.0
2019-Dec-09 04:18 028 2 gusting 2 8.0
2019-Dec-09 04:12 022 2 gusting 2 8.1
2019-Dec-09 04:06 029 2 gusting 2 8.1
2019-Dec-09 04:00 037 1 gusting 2 8.1
2019-Dec-09 03:54 035 2 gusting 3 8.1
2019-Dec-09 03:48 041 2 gusting 3 7.9
2019-Dec-09 03:42 034 2 gusting 2 7.9
2019-Dec-09 03:36 014 1 gusting 2 7.8
2019-Dec-09 03:30 348 1 gusting 2 8.0
2019-Dec-09 03:24 344 0 gusting 1 8.1
2019-Dec-09 03:18 009 1 gusting 1 8.3
2019-Dec-09 03:12 032 1 gusting 2 8.5
2019-Dec-09 03:06 034 2 gusting 2 8.7
2019-Dec-09 03:00 041 1 gusting 2 8.9
2019-Dec-09 02:54 042 1 gusting 2 8.9
2019-Dec-09 02:48 033 2 gusting 2 8.9
2019-Dec-09 02:42 028 1 gusting 2 9.0
2019-Dec-09 02:36 007 1 gusting 1 9.1
2019-Dec-09 02:30 043 0 gusting 1 9.2
2019-Dec-09 02:24 050 0 gusting 1 9.2
2019-Dec-09 02:18 124 1 gusting 3 9.2
2019-Dec-09 02:12 140 1 gusting 3 9.2
2019-Dec-09 02:06 124 2 gusting 4 9.2
2019-Dec-09 02:00 119 3 gusting 5 9.2
2019-Dec-09 01:54 114 3 gusting 6 9.1
2019-Dec-09 01:48 107 4 gusting 8 9.1
2019-Dec-09 01:42 108 4 gusting 7 9.0
2019-Dec-09 01:36 111 4 gusting 7 9.0
2019-Dec-09 01:30 110 4 gusting 7 8.9
2019-Dec-09 01:24 103 3 gusting 7 8.7
2019-Dec-09 01:18 104 4 gusting 7 8.7
2019-Dec-09 01:12 108 3 gusting 7 8.6
2019-Dec-09 01:06 106 3 gusting 6 8.6
2019-Dec-09 01:00 102 3 gusting 7 8.6
2019-Dec-09 00:54 103 4 gusting 8 8.5
2019-Dec-09 00:48 110 5 gusting 10 8.4
2019-Dec-09 00:42 117 4 gusting 8 8.4
2019-Dec-09 00:36 114 4 gusting 9 8.5
2019-Dec-09 00:30 111 4 gusting 8 8.5
2019-Dec-09 00:24 115 4 gusting 8 8.5
2019-Dec-09 00:18 117 4 gusting 8 8.5
2019-Dec-09 00:12 120 5 gusting 8 8.6
2019-Dec-09 00:06 122 5 gusting 9 8.5
2019-Dec-09 00:00 120 5 gusting 8 8.5
2019-Dec-08 23:54 121 5 gusting 9 8.4
2019-Dec-08 23:48 114 4 gusting 8 8.4
2019-Dec-08 23:42 105 4 gusting 8 8.3
2019-Dec-08 23:36 112 4 gusting 8 8.3
2019-Dec-08 23:30 114 4 gusting 9 8.3
2019-Dec-08 23:24 116 4 gusting 8 8.2
2019-Dec-08 23:18 111 5 gusting 8 8.2
2019-Dec-08 23:12 109 5 gusting 9 8.2
2019-Dec-08 23:06 110 6 gusting 10 8.2
2019-Dec-08 23:00 113 5 gusting 10 8.2
2019-Dec-08 22:54 105 5 gusting 10 8.1
2019-Dec-08 22:48 108 5 gusting 12 8.2
2019-Dec-08 22:42 114 5 gusting 11 8.2
2019-Dec-08 22:36 119 7 gusting 11 8.2
2019-Dec-08 22:30 120 7 gusting 12 8.2
2019-Dec-08 22:24 120 7 gusting 13 8.1
2019-Dec-08 22:18 121 6 gusting 11 8.1
2019-Dec-08 22:12 120 6 gusting 9 8.0
2019-Dec-08 22:06 118 5 gusting 9 7.8
2019-Dec-08 22:00 116 4 gusting 7 7.9
2019-Dec-08 21:54 116 5 gusting 8 7.9
2019-Dec-08 21:48 119 5 gusting 9 7.9
2019-Dec-08 21:42 119 5 gusting 10 7.9
2019-Dec-08 21:36 120 6 gusting 10 8.0
2019-Dec-08 21:30 119 6 gusting 10 7.9
2019-Dec-08 21:24 119 6 gusting 11 8.0
2019-Dec-08 21:12 126 5 gusting 9 7.9
2019-Dec-08 21:06 124 5 gusting 10 8.0
2019-Dec-08 21:00 125 6 gusting 11 8.0
2019-Dec-08 20:54 125 6 gusting 11 7.9
2019-Dec-08 20:48 124 7 gusting 11 7.9
2019-Dec-08 20:42 121 7 gusting 12 7.9
2019-Dec-08 20:36 121 6 gusting 11 7.9
2019-Dec-08 20:30 124 7 gusting 12 7.9
2019-Dec-08 20:24 123 6 gusting 11 7.9
2019-Dec-08 20:18 123 7 gusting 12 7.9
2019-Dec-08 20:12 125 6 gusting 10 7.9
2019-Dec-08 20:06 121 6 gusting 10 7.9
2019-Dec-08 20:00 119 5 gusting 9 7.9
2019-Dec-08 19:54 121 5 gusting 9 7.9
2019-Dec-08 19:48 115 4 gusting 9 7.8
2019-Dec-08 19:42 110 4 gusting 9 7.7
2019-Dec-08 19:36 111 5 gusting 11 7.7
2019-Dec-08 19:30 105 5 gusting 8 7.6
2019-Dec-08 19:24 113 5 gusting 10 7.7
2019-Dec-08 19:18 128 5 gusting 8 7.9
2019-Dec-08 19:12 133 6 gusting 9 7.7
2019-Dec-08 19:06 114 5 gusting 9 7.7
2019-Dec-08 19:00 107 4 gusting 8 7.7
2019-Dec-08 18:54 115 4 gusting 7 7.6
2019-Dec-08 18:48 119 4 gusting 9 7.6
2019-Dec-08 18:42 120 5 gusting 10 7.4
2019-Dec-08 18:36 126 5 gusting 9 7.4
2019-Dec-08 18:30 120 6 gusting 10 7.4
2019-Dec-08 18:24 124 7 gusting 11 7.3
2019-Dec-08 18:18 121 6 gusting 11 7.3
2019-Dec-08 18:12 124 6 gusting 10 7.1
2019-Dec-08 18:06 121 6 gusting 9 7.0
2019-Dec-08 18:00 123 6 gusting 11 6.9
2019-Dec-08 17:54 122 6 gusting 9 6.9
2019-Dec-08 17:48 120 6 gusting 10 6.9
2019-Dec-08 17:42 121 6 gusting 10 6.8
2019-Dec-08 17:36 107 6 gusting 12 6.9
2019-Dec-08 17:30 094 6 gusting 10 6.9
2019-Dec-08 17:24 095 6 gusting 11 6.6
2019-Dec-08 17:18 087 6 gusting 10 6.6
2019-Dec-08 17:12 088 7 gusting 11 6.7
2019-Dec-08 17:06 094 7 gusting 11 6.4
2019-Dec-08 17:00 090 7 gusting 11 6.5
2019-Dec-08 16:54 093 6 gusting 11 6.3
2019-Dec-08 16:48 086 6 gusting 10 6.1
2019-Dec-08 16:42 085 6 gusting 10 6.3
2019-Dec-08 16:36 095 6 gusting 10 6.2
2019-Dec-08 16:30 088 7 gusting 11 6.1
2019-Dec-08 16:24 095 6 gusting 10 6.0
2019-Dec-08 16:18 088 7 gusting 11 5.9
2019-Dec-08 16:12 089 6 gusting 11 6.0
2019-Dec-08 16:06 090 7 gusting 11 5.9
2019-Dec-08 16:00 095 6 gusting 10 6.1
2019-Dec-08 15:54 084 7 gusting 11 5.9
2019-Dec-08 15:48 083 6 gusting 9 5.8
2019-Dec-08 15:42 090 6 gusting 10 5.7
2019-Dec-08 15:36 075 5 gusting 8 5.7
2019-Dec-08 15:30 080 6 gusting 11 5.8
2019-Dec-08 15:24 060 7 gusting 13 5.6
2019-Dec-08 15:18 080 6 gusting 11 5.7
2019-Dec-08 15:12 059 7 gusting 11 5.5
2019-Dec-08 15:06 082 6 gusting 9 5.4
2019-Dec-08 15:00 076 5 gusting 9 5.5
2019-Dec-08 14:54 057 6 gusting 9 5.3
2019-Dec-08 14:48 075 5 gusting 10 5.2
2019-Dec-08 14:42 062 6 gusting 10 5.1
2019-Dec-08 14:36 067 7 gusting 11 5.0
2019-Dec-08 14:30 064 7 gusting 11 4.9
2019-Dec-08 14:24 060 7 gusting 11 4.9
2019-Dec-08 14:18 072 6 gusting 10 4.8
2019-Dec-08 14:12 061 6 gusting 12 4.7
2019-Dec-08 14:06 065 7 gusting 11 4.5
2019-Dec-08 14:00 055 6 gusting 11 3.9
2019-Dec-08 13:54 054 5 gusting 11 3.4
2019-Dec-08 13:48 014 4 gusting 7 2.9
2019-Dec-08 13:42 008 5 gusting 8 2.5
2019-Dec-08 13:36 356 5 gusting 6 2.3
2019-Dec-08 13:30 356 4 gusting 6 2.0
2019-Dec-08 13:24 352 4 gusting 6 1.8
2019-Dec-08 13:18 358 4 gusting 6 1.6
2019-Dec-08 13:12 349 4 gusting 6 1.5
2019-Dec-08 13:06 351 3 gusting 5 1.2
2019-Dec-08 13:00 353 3 gusting 5 1.3
2019-Dec-08 12:54 356 4 gusting 6 1.1
2019-Dec-08 12:48 005 4 gusting 7 0.8
2019-Dec-08 12:42 005 4 gusting 5 0.7
2019-Dec-08 12:36 003 3 gusting 5 0.5
2019-Dec-08 12:30 003 2 gusting 5 0.4
2019-Dec-08 12:24 001 3 gusting 5 0.3
2019-Dec-08 12:18 357 4 gusting 6 0.2
2019-Dec-08 12:12 355 5 gusting 6 -0.1
2019-Dec-08 12:06 355 5 gusting 7 -0.2
2019-Dec-08 12:00 353 5 gusting 7 -0.3
2019-Dec-08 11:54 356 4 gusting 6 -0.3
2019-Dec-08 11:48 354 3 gusting 5 -0.5
2019-Dec-08 11:42 345 4 gusting 5 -0.5
2019-Dec-08 11:36 347 4 gusting 5 -0.3
2019-Dec-08 11:30 343 3 gusting 4 -0.3